• In Uzbekistan
  • List of Countries
  • For 7 days
  • Water Temperature
  • Satellite Maps
  • Weather Map
  • Weather Widgets
  • user-avatar
    Login

    Hourly Weather Calgary

    Today, 19 October, Friday

    Time Temperature Precipitation Wind Pressure Humidity
    00:00 +6°C° 0 mm 1 mps 673 mmHg 75%
    01:00 +6°C° 0 mm 1 mps 673 mmHg 76%
    02:00 +5°C° 0 mm 1 mps 673 mmHg 77%
    03:00 +5°C° 0 mm 1 mps 673 mmHg 78%
    04:00 +5°C° 0 mm 1 mps 673 mmHg 79%
    05:00 +5°C° 0 mm 1 mps 673 mmHg 78%
    06:00 +5°C° 0 mm 1 mps 674 mmHg 76%
    07:00 +5°C° 0 mm 1 mps 674 mmHg 75%
    08:00 +7°C° 0 mm 1 mps 674 mmHg 66%
    09:00 +8°C° 0 mm 2 mps 674 mmHg 57%
    10:00 +10°C° 0 mm 2 mps 674 mmHg 48%
    11:00 +12°C° 0 mm 2 mps 674 mmHg 46%
    12:00 +13°C° 0 mm 2 mps 674 mmHg 43%
    13:00 +13°C° 0 mm 3 mps 674 mmHg 41%
    14:00 +12°C° 0 mm 3 mps 674 mmHg 45%
    15:00 +11°C° 0 mm 3 mps 673 mmHg 49%
    16:00 +10°C° 0 mm 3 mps 673 mmHg 53%
    17:00 +9°C° 0 mm 3 mps 673 mmHg 56%
    18:00 +8°C° 0 mm 3 mps 673 mmHg 59%
    19:00 +7°C° 0 mm 3 mps 673 mmHg 61%
    20:00 +5°C° 0 mm 3 mps 672 mmHg 61%
    21:00 +5°C° 0 mm 3 mps 672 mmHg 61%
    22:00 +5°C° 0 mm 3 mps 672 mmHg 61%
    23:00 +5°C° 0 mm 3 mps 671 mmHg 62%

    Tomorrow, 20 October, Saturday

    Time Temperature Precipitation Wind Pressure Humidity
    00:00 +4°C° 0 mm 3 mps 671 mmHg 63%
    01:00 +4°C° 0 mm 3 mps 670 mmHg 63%
    02:00 +5°C° 0 mm 2 mps 670 mmHg 64%
    03:00 +5°C° 0 mm 2 mps 670 mmHg 64%
    04:00 +5°C° 0 mm 2 mps 669 mmHg 64%
    05:00 +6°C° 0 mm 2 mps 670 mmHg 63%
    06:00 +6°C° 0 mm 2 mps 670 mmHg 61%
    07:00 +5°C° 0 mm 3 mps 670 mmHg 60%
    08:00 +7°C° 0 mm 4 mps 670 mmHg 56%
    09:00 +9°C° 0 mm 5 mps 670 mmHg 53%
    10:00 +11°C° 0 mm 6 mps 671 mmHg 49%
    11:00 +12°C° 0 mm 5 mps 671 mmHg 48%
    12:00 +13°C° 0 mm 4 mps 671 mmHg 47%
    13:00 +13°C° 0 mm 3 mps 670 mmHg 46%
    14:00 +12°C° 0 mm 3 mps 670 mmHg 50%
    15:00 +12°C° 0 mm 2 mps 670 mmHg 53%
    16:00 +11°C° 0 mm 1 mps 669 mmHg 56%
    17:00 +10°C° 0 mm 1 mps 669 mmHg 59%
    18:00 +9°C° 0 mm 1 mps 670 mmHg 62%
    19:00 +7°C° 0 mm 1 mps 670 mmHg 65%
    20:00 +7°C° 0 mm 1 mps 670 mmHg 65%
    21:00 +7°C° 0 mm 1 mps 669 mmHg 66%
    22:00 +6°C° 0 mm 1 mps 669 mmHg 67%
    23:00 +6°C° 0 mm 1 mps 669 mmHg 67%

    Day after tomorrow, 21 October, Sunday

    Time Temperature Precipitation Wind Pressure Humidity
    00:00 +4°C° 0 mm 2 mps 669 mmHg 68%
    01:00 +4°C° 0 mm 2 mps 669 mmHg 69%
    02:00 +4°C° 0 mm 2 mps 669 mmHg 71%
    03:00 +4°C° 0 mm 2 mps 669 mmHg 73%
    04:00 +3°C° 0 mm 2 mps 669 mmHg 75%
    05:00 +4°C° 0 mm 1 mps 669 mmHg 75%
    06:00 +4°C° 0 mm 1 mps 668 mmHg 75%
    07:00 +5°C° 0 mm 1 mps 668 mmHg 74%
    08:00 +6°C° 0 mm 1 mps 669 mmHg 67%
    09:00 +8°C° 0 mm 1 mps 669 mmHg 60%
    10:00 +10°C° 0 mm 1 mps 669 mmHg 52%
    11:00 +11°C° 0 mm 1 mps 669 mmHg 50%
    12:00 +12°C° 0 mm 1 mps 669 mmHg 48%
    13:00 +13°C° 0 mm 1 mps 669 mmHg 46%
    14:00 +12°C° 0 mm 1 mps 668 mmHg 50%
    15:00 +11°C° 0 mm 1 mps 668 mmHg 55%
    16:00 +10°C° 0 mm 1 mps 668 mmHg 59%
    17:00 +9°C° 0 mm 1 mps 668 mmHg 63%
    18:00 +6°C° 0 mm 0 mps 668 mmHg 67%
    19:00 +5°C° 0 mm 0 mps 669 mmHg 71%
    20:00 +5°C° 0 mm 0 mps 669 mmHg 73%
    21:00 +5°C° 0 mm 0 mps 669 mmHg 74%
    22:00 +4°C° 0 mm 0 mps 669 mmHg 76%
    23:00 +4°C° 0 mm 0 mps 669 mmHg 77%

    22 October, Monday

    Time Temperature Precipitation Wind Pressure Humidity
    00:00 +4°C° 0 mm 0 mps 669 mmHg 78%
    01:00 +3°C° 0 mm 0 mps 669 mmHg 78%
    02:00 +4°C° 0 mm 1 mps 668 mmHg 78%
    03:00 +4°C° 0 mm 1 mps 668 mmHg 78%
    04:00 +4°C° 0 mm 1 mps 668 mmHg 78%
    05:00 +3°C° 0 mm 2 mps 668 mmHg 76%
    06:00 +3°C° 0 mm 2 mps 668 mmHg 75%
    07:00 +3°C° 0 mm 2 mps 668 mmHg 74%
    08:00 +4°C° 0 mm 3 mps 668 mmHg 66%
    09:00 +7°C° 0 mm 3 mps 668 mmHg 58%
    10:00 +8°C° 0 mm 4 mps 668 mmHg 49%
    11:00 +10°C° 0 mm 4 mps 668 mmHg 48%
    12:00 +11°C° 0 mm 4 mps 667 mmHg 46%
    13:00 +12°C° 0 mm 4 mps 667 mmHg 45%
    14:00 +11°C° 0 mm 4 mps 667 mmHg 49%
    15:00 +10°C° 0 mm 3 mps 666 mmHg 54%
    16:00 +9°C° 0 mm 3 mps 666 mmHg 59%
    17:00 +8°C° 0 mm 3 mps 666 mmHg 62%
    18:00 +7°C° 0 mm 2 mps 665 mmHg 65%
    19:00 +6°C° 0 mm 2 mps 665 mmHg 68%
    20:00 +6°C° 0 mm 2 mps 665 mmHg 67%
    21:00 +6°C° 0 mm 2 mps 665 mmHg 67%
    22:00 +5°C° 0 mm 2 mps 665 mmHg 67%
    23:00 +5°C° 0 mm 2 mps 664 mmHg 66%

    23 October, Tuesday

    Time Temperature Precipitation Wind Pressure Humidity
    00:00 +5°C° 0 mm 2 mps 664 mmHg 64%
    01:00 +5°C° 0 mm 2 mps 664 mmHg 63%
    02:00 +5°C° 0 mm 2 mps 664 mmHg 62%
    03:00 +5°C° 0 mm 2 mps 663 mmHg 62%
    04:00 +5°C° 0 mm 2 mps 663 mmHg 61%
    05:00 +5°C° 0 mm 2 mps 663 mmHg 59%
    06:00 +5°C° 0 mm 2 mps 662 mmHg 58%
    07:00 +5°C° 0 mm 2 mps 662 mmHg 56%
    08:00 +8°C° 0 mm 2 mps 662 mmHg 49%
    09:00 +12°C° 0 mm 2 mps 662 mmHg 42%
    10:00 +15°C° 0 mm 2 mps 662 mmHg 35%
    11:00 +16°C° 0 mm 2 mps 662 mmHg 33%
    12:00 +17°C° 0 mm 2 mps 662 mmHg 30%
    13:00 +19°C° 0 mm 2 mps 662 mmHg 28%
    14:00 +17°C° 0 mm 2 mps 662 mmHg 32%
    15:00 +16°C° 0 mm 2 mps 661 mmHg 35%
    16:00 +14°C° 0 mm 2 mps 661 mmHg 39%
    17:00 +13°C° 0 mm 2 mps 661 mmHg 42%
    18:00 +10°C° 0 mm 3 mps 661 mmHg 44%
    19:00 +9°C° 0 mm 3 mps 661 mmHg 46%
    20:00 +9°C° 0 mm 3 mps 661 mmHg 47%
    21:00 +9°C° 0 mm 3 mps 661 mmHg 48%
    22:00 +8°C° 0 mm 3 mps 662 mmHg 49%
    23:00 +8°C° 0 mm 3 mps 662 mmHg 50%

    24 October, Wednesday

    Time Temperature Precipitation Wind Pressure Humidity
    00:00 +8°C° 0 mm 3 mps 663 mmHg 51%
    01:00 +7°C° 0 mm 3 mps 663 mmHg 52%
    02:00 +7°C° 0 mm 3 mps 663 mmHg 54%
    03:00 +7°C° 0 mm 2 mps 663 mmHg 56%
    04:00 +6°C° 0 mm 2 mps 664 mmHg 58%
    05:00 +6°C° 0 mm 2 mps 664 mmHg 60%
    06:00 +6°C° 0 mm 2 mps 664 mmHg 63%
    07:00 +5°C° 0 mm 2 mps 665 mmHg 65%
    08:00 +7°C° 0 mm 2 mps 665 mmHg 61%
    09:00 +8°C° 0 mm 2 mps 665 mmHg 58%
    10:00 +10°C° 0 mm 2 mps 666 mmHg 54%
    11:00 +10°C° 0 mm 2 mps 665 mmHg 52%
    12:00 +12°C° 0 mm 2 mps 665 mmHg 50%
    13:00 +13°C° 0 mm 2 mps 665 mmHg 48%
    14:00 +12°C° 0 mm 2 mps 665 mmHg 52%
    15:00 +10°C° 0 mm 2 mps 664 mmHg 56%
    16:00 +9°C° 0 mm 3 mps 664 mmHg 60%
    17:00 +8°C° 0 mm 3 mps 664 mmHg 63%
    18:00 +7°C° 0 mm 3 mps 663 mmHg 67%
    19:00 +5°C° 0 mm 3 mps 663 mmHg 70%
    20:00 +5°C° 0 mm 3 mps 663 mmHg 71%
    21:00 +4°C° 0 mm 3 mps 663 mmHg 71%
    22:00 +4°C° 0 mm 3 mps 662 mmHg 72%
    23:00 +4°C° 0 mm 3 mps 662 mmHg 73%
    Show more